Theta_e
338 338 337 337 337 337 336 336 335 333 333 333 332 335 336 337 337 336 336 336 335 335 334 334 334 334 334 334 334 334 334 333 332 331 330 330 330 327 327 328 326 326 327 326 326 326 325 325 325 325 324 324 321 316 312 311 314 317 319 320 321 321 322 322 322 321 320 320 321 321 321 321 322 322 322 321 321 321 322 322 322 322 322 321 321
339 338 337 337 337 337 337 336 335 334 333 332 332 334 336 336 337 337 336 336 335 334 333 333 334 334 334 334 334 334 334 333 333 332 331 330 330 328 326 326 325 327 327 327 327 327 327 326 326 324 321 318 315 312 314 317 319 321 322 323 323 323 323 323 323 324 322 321 320 321 321 321 321 321 321 322 321 321 321 321 321 322 322 322 321
339 339 338 337 337 337 337 336 335 334 332 332 332 333 335 336 337 336 336 336 335 335 334 333 334 334 334 334 334 334 333 334 333 333 332 330 330 330 327 325 326 328 328 328 327 327 326 325 325 323 318 314 316 318 321 323 324 324 324 324 324 324 324 323 323 324 324 323 321 321 320 320 320 320 320 321 321 321 321 321 321 321 321 322 321
340 339 339 338 338 337 337 336 335 334 333 332 332 333 334 336 336 336 336 335 335 335 334 334 334 334 334 335 334 334 334 334 333 333 332 330 330 330 328 327 327 326 327 328 327 327 326 325 325 324 321 320 323 324 324 325 325 326 326 326 326 325 325 324 324 324 324 324 323 322 321 320 319 318 318 320 320 320 320 320 320 321 321 321 321
340 339 338 338 338 337 336 336 336 335 334 333 332 333 334 334 335 336 335 336 336 335 334 335 335 334 335 335 335 334 334 333 333 332 331 330 330 331 330 330 328 326 326 327 326 325 324 324 325 324 325 325 326 326 326 326 326 327 327 327 327 327 326 326 325 324 324 324 324 323 322 322 320 317 316 318 319 318 319 320 320 320 321 321 321
340 339 338 338 337 336 336 336 336 336 335 334 333 333 333 334 334 335 335 335 335 335 335 335 335 335 335 335 334 334 333 333 333 332 331 331 331 331 331 331 330 328 326 324 321 320 322 325 326 326 327 328 328 328 328 328 328 329 329 329 328 327 327 326 326 325 325 325 324 324 323 322 321 319 317 316 316 316 317 319 320 321 321 321 320
340 339 338 338 337 336 336 336 336 336 335 335 334 333 332 333 333 334 334 334 335 335 335 335 335 334 334 334 334 333 333 333 332 332 331 331 331 332 331 330 330 329 328 324 319 321 325 328 327 327 328 329 329 329 329 329 329 329 329 329 328 327 326 326 326 325 325 325 324 324 324 323 322 321 320 316 316 317 318 319 320 321 322 321 320
339 339 339 338 337 336 336 337 336 335 335 335 335 334 333 333 333 334 334 334 334 334 334 334 334 334 333 333 333 333 333 333 333 332 331 332 332 333 331 330 330 329 329 329 326 327 328 328 328 327 328 329 329 329 329 329 329 329 329 328 327 326 324 325 325 325 325 325 325 325 324 324 322 322 321 316 316 319 319 319 320 321 322 321 320
339 339 339 338 337 337 337 336 336 336 335 335 334 334 334 334 334 334 334 334 333 334 334 334 334 334 333 333 333 333 333 333 333 332 332 332 333 333 330 330 330 329 330 330 330 329 328 327 327 327 328 329 329 328 328 329 329 329 329 327 326 325 324 324 324 325 325 325 325 325 324 324 323 323 321 316 316 320 321 320 321 322 322 322 320
339 339 339 339 338 338 338 337 337 336 336 336 334 334 335 335 335 334 334 334 333 334 334 334 334 334 333 333 333 333 334 334 333 332 332 332 333 333 330 331 332 330 331 330 330 330 329 327 327 327 327 328 328 328 328 328 328 329 328 327 326 327 325 324 323 324 325 325 325 325 324 324 323 323 320 315 317 321 321 321 322 322 322 321 321
338 339 339 339 339 339 339 338 337 337 336 335 334 334 336 336 336 335 335 335 334 334 334 334 334 333 334 333 333 334 334 334 332 332 332 332 333 332 331 331 332 331 331 330 330 330 330 329 328 328 328 327 328 328 328 328 328 329 328 327 327 326 325 325 323 323 324 324 325 325 325 324 324 323 317 314 319 321 321 322 322 322 321 321 321
339 338 339 340 339 339 339 338 337 337 336 336 334 334 336 338 337 336 335 335 334 335 335 334 334 334 334 334 334 334 334 333 333 332 332 332 332 332 331 331 331 331 330 331 331 330 330 330 330 329 329 328 328 327 328 329 328 329 328 327 327 325 323 322 320 320 322 323 323 324 325 324 324 322 317 316 321 322 322 323 323 322 321 321 322
338 337 338 339 338 338 339 339 338 337 336 336 335 334 335 338 337 336 335 334 334 335 335 334 334 334 334 334 334 334 333 333 333 332 332 332 332 332 332 331 331 331 330 331 331 330 330 331 331 330 330 329 329 328 328 328 329 329 328 328 328 323 315 314 314 315 319 321 322 324 324 324 324 322 319 320 322 322 323 323 322 321 321 321 322
337 337 337 338 337 338 339 339 338 337 337 337 337 336 335 337 337 336 335 334 334 334 334 334 334 334 335 334 334 333 333 333 333 333 332 332 332 332 332 331 332 331 330 331 331 329 329 330 330 329 329 330 330 329 328 329 329 328 327 328 325 314 308 315 320 319 319 319 318 322 325 324 324 322 320 321 323 323 323 323 321 321 321 321 321
335 336 336 337 336 336 337 338 339 339 339 338 338 337 336 336 337 336 335 334 334 334 333 335 334 334 334 333 332 333 333 333 333 333 332 332 332 332 332 331 332 331 330 331 330 329 329 330 329 328 329 330 329 329 329 329 329 327 327 324 316 311 316 322 324 323 324 321 317 320 325 325 323 320 320 322 323 323 323 322 321 321 320 319 320
334 335 335 336 336 335 336 338 339 338 338 337 337 337 337 337 336 336 335 334 334 334 334 335 333 333 333 332 332 333 333 333 334 334 332 333 333 332 331 331 332 331 330 331 331 329 329 329 328 328 329 329 329 328 329 329 327 325 322 315 308 314 323 324 324 324 324 321 317 321 326 323 320 320 322 324 323 322 321 320 319 317 314 314 317
334 335 335 335 335 335 336 338 339 338 338 338 337 335 336 337 336 335 334 333 335 334 334 335 333 333 333 333 333 332 333 334 334 334 332 332 333 332 331 331 331 331 331 331 330 330 330 329 329 329 329 329 329 328 328 328 325 322 318 308 307 318 324 324 326 325 320 317 319 324 325 322 320 322 323 321 320 319 317 313 310 307 305 306 309
334 334 335 335 335 335 335 337 338 338 338 337 336 334 335 337 336 334 333 333 335 335 334 334 334 334 335 334 334 332 333 334 333 333 333 331 332 332 331 331 331 331 331 331 330 330 330 329 330 330 329 329 329 328 329 327 325 326 320 308 308 318 323 324 326 325 323 321 323 325 324 321 322 322 319 317 316 313 309 306 303 302 301 301 302
334 334 333 334 335 335 335 336 337 338 337 336 335 334 334 335 335 335 334 334 335 334 333 334 334 334 334 335 335 333 333 333 331 332 332 330 331 331 331 330 330 330 330 330 329 330 329 329 329 329 329 330 330 329 328 324 320 320 313 305 308 317 323 325 326 327 326 324 324 324 323 323 322 320 318 314 309 306 303 302 300 299 300 300 301
334 334 333 334 335 335 335 335 336 337 337 335 334 334 333 334 334 334 334 334 334 333 333 334 334 334 334 335 335 333 332 333 332 331 331 330 331 331 331 331 330 330 329 329 329 330 330 329 329 329 328 329 330 328 326 322 319 314 306 303 308 317 322 324 326 327 326 324 324 324 323 323 322 320 318 312 304 301 300 300 299 298 299 300 301
333 333 334 334 334 335 335 335 335 336 336 335 334 333 333 334 334 334 334 334 334 333 332 333 334 334 334 334 335 333 332 333 333 332 331 331 330 330 331 331 331 330 329 329 329 330 330 329 328 328 328 329 328 327 324 321 321 317 307 302 307 317 323 324 325 326 326 325 324 324 324 323 321 320 316 308 301 300 300 298 298 298 298 298 298
332 332 333 333 333 334 334 334 334 334 335 335 334 333 333 334 334 334 335 335 334 333 332 332 333 334 334 334 334 334 333 333 334 333 332 331 330 329 331 331 330 330 330 330 330 330 330 328 328 328 328 329 327 325 323 320 320 318 307 301 307 317 323 323 323 324 325 325 324 324 323 322 321 318 311 304 300 299 299 298 298 298 297 297 297
331 332 333 333 333 333 333 333 333 333 334 335 334 333 333 334 334 334 334 334 334 333 333 332 331 332 333 333 334 333 333 334 334 333 332 332 331 330 331 330 329 330 330 329 329 330 329 328 328 328 328 329 326 324 323 319 319 316 307 302 305 315 323 323 322 324 323 323 323 322 322 321 319 314 305 301 300 298 299 299 298 298 297 297 297
332 332 332 333 333 333 333 333 333 333 333 334 333 333 333 334 334 334 334 333 332 332 332 331 331 332 332 332 333 332 332 333 332 332 332 332 331 331 331 330 329 329 329 328 328 328 328 328 328 329 328 327 325 324 322 318 313 308 305 303 304 311 320 322 321 322 321 321 321 319 319 318 314 308 302 300 299 300 301 300 298 298 297 297 297
334 333 332 332 333 332 333 333 333 333 333 334 333 332 332 333 334 333 333 333 332 332 332 332 333 333 332 332 333 332 333 333 332 331 331 331 331 331 330 329 329 329 328 328 328 327 327 328 328 329 328 327 325 324 322 320 311 303 304 306 302 306 314 317 319 319 317 317 316 316 318 314 307 304 302 300 301 303 302 300 298 298 298 298 298
334 334 333 333 332 332 333 333 333 333 334 334 334 333 332 332 333 333 333 332 333 333 333 333 335 335 333 333 333 333 333 332 331 331 331 331 331 331 330 329 329 329 329 328 327 327 328 328 328 328 328 327 326 324 323 323 314 303 305 308 303 302 307 309 311 312 309 308 308 312 315 310 303 302 302 301 304 304 301 299 298 298 298 298 298
334 334 334 333 333 332 332 332 333 333 334 334 334 333 333 332 332 332 332 332 333 333 333 334 335 334 334 333 332 333 333 332 331 331 331 331 331 331 330 329 329 329 329 328 328 328 328 328 328 327 328 327 326 325 323 324 318 304 305 313 307 301 302 302 302 303 303 303 304 307 308 305 302 301 302 303 304 302 299 299 299 298 298 298 298
334 334 334 334 333 332 332 332 332 333 333 334 334 333 333 333 333 333 332 333 333 333 334 334 335 334 334 334 333 333 332 332 332 331 331 331 331 330 330 329 328 327 328 327 328 329 328 328 328 327 328 327 326 326 323 323 320 305 305 318 315 304 301 301 300 300 301 301 303 303 302 302 301 301 302 302 302 301 299 299 298 298 299 298 298
334 334 334 333 333 332 332 331 332 332 332 333 333 333 333 333 333 332 333 333 333 333 333 334 334 334 334 334 333 332 331 331 332 331 331 331 331 330 330 330 329 327 327 327 328 329 329 328 328 327 327 326 326 326 323 323 320 308 307 319 319 310 302 301 300 300 300 300 300 301 300 301 302 302 302 301 301 300 299 299 299 299 299 299 299
334 334 333 333 332 332 332 332 332 332 332 332 332 333 332 332 332 332 332 333 333 333 332 333 334 333 334 334 333 332 331 331 333 332 332 332 331 330 330 330 330 329 328 328 328 330 329 328 328 327 327 326 326 325 323 323 319 312 312 317 319 313 304 300 301 299 299 300 300 300 300 300 301 301 301 301 300 300 299 299 299 299 299 299 300
333 334 333 332 332 332 332 332 332 332 332 332 332 332 332 332 332 332 332 332 332 333 333 333 333 333 334 334 333 333 331 331 332 332 332 332 331 331 331 331 330 330 330 328 328 329 329 329 328 327 327 325 325 323 322 323 318 313 315 317 316 312 303 300 301 299 300 300 299 300 300 300 300 300 300 300 300 300 300 299 300 300 300 300 301
332 333 332 332 333 333 332 332 332 332 332 332 332 332 332 331 331 332 332 332 332 332 332 333 333 333 334 334 333 332 331 330 331 332 332 332 332 331 331 331 331 331 331 330 329 329 330 329 328 328 327 325 325 323 322 323 317 310 314 318 314 309 305 304 302 299 300 300 299 301 300 300 301 300 300 300 300 300 300 300 301 301 301 302 303
330 332 333 333 333 332 332 332 332 332 332 332 332 332 332 331 331 331 332 332 332 332 332 332 332 332 333 333 332 332 331 330 331 332 332 332 332 332 331 331 331 331 331 331 330 330 329 328 328 328 327 326 325 323 321 322 317 310 312 317 315 310 308 310 306 300 300 301 300 300 300 300 300 300 300 300 300 301 301 302 303 303 304 304 305
331 331 332 333 333 332 332 332 331 332 332 332 331 331 332 331 331 330 331 332 332 332 332 332 332 331 331 332 332 332 331 330 330 331 332 332 332 332 331 331 331 331 331 330 330 330 328 327 327 327 327 326 325 323 322 322 319 315 313 315 315 311 310 312 312 305 301 301 301 301 300 300 300 300 301 300 301 302 303 305 306 306 307 306 307
331 331 331 332 332 332 332 332 332 332 332 332 331 331 331 331 331 330 331 332 332 332 333 331 331 331 331 331 332 331 331 330 330 331 332 331 331 331 331 332 331 331 331 330 329 329 328 326 325 325 325 326 325 324 322 321 320 318 314 314 314 312 310 312 313 310 305 302 302 302 301 301 301 300 301 301 302 304 306 308 308 308 308 308 308
330 331 331 331 331 331 331 331 332 332 332 332 331 331 331 331 331 331 331 332 332 332 332 331 331 331 331 332 332 331 331 331 330 330 331 331 331 331 331 331 331 331 331 330 329 329 328 326 325 324 324 326 326 324 321 321 320 318 315 314 313 311 310 310 311 311 308 304 303 304 303 302 302 302 302 304 305 307 309 309 309 309 309 308 309
330 330 330 331 331 331 331 331 332 332 332 332 332 331 331 331 332 332 332 332 332 330 331 331 331 330 331 332 332 331 331 331 329 329 331 332 332 332 332 332 331 331 331 331 330 329 328 327 325 323 323 325 326 323 320 319 319 318 316 315 314 312 311 310 309 309 308 305 303 304 305 305 304 305 305 306 308 309 309 310 309 309 309 309 309
329 329 330 330 330 331 331 331 331 331 331 332 332 332 331 331 332 332 332 332 331 330 331 332 331 330 331 332 331 331 331 331 330 330 332 332 333 332 332 332 331 330 331 331 330 329 328 327 325 322 321 323 324 321 318 317 317 316 316 316 316 314 312 311 310 309 308 306 303 303 304 306 306 307 307 308 308 309 309 309 309 309 308 308 308
328 329 329 330 330 330 330 330 331 332 331 331 332 332 332 332 332 332 333 332 330 330 332 332 331 331 332 332 331 330 330 331 330 331 332 333 333 333 332 332 331 330 331 330 329 329 328 327 326 323 322 321 321 319 317 316 316 316 316 316 316 315 313 313 312 311 310 308 306 304 303 304 305 306 306 307 307 307 307 307 307 307 307 307 307
327 328 329 329 330 330 330 330 330 331 331 331 331 332 332 332 332 332 332 332 331 331 331 331 331 331 331 332 331 330 330 330 330 330 331 332 332 332 332 332 331 330 331 330 328 328 328 326 325 325 323 320 320 319 317 316 317 316 316 316 316 316 315 314 313 312 311 311 309 307 305 304 304 304 304 304 305 305 305 305 305 305 305 305 305
327 327 328 328 329 330 330 330 330 330 331 331 330 331 331 331 332 332 332 331 332 331 330 330 330 330 331 331 331 330 330 329 329 329 328 328 331 332 331 331 331 330 330 330 328 328 328 326 325 325 325 322 320 320 318 317 318 317 317 317 316 316 316 316 315 313 312 312 311 310 310 309 307 307 306 306 307 307 307 306 307 308 308 308 308
325 326 327 327 328 329 329 329 329 329 330 330 330 330 331 331 331 332 331 331 331 331 330 329 329 329 330 331 331 331 330 329 329 329 328 328 329 330 331 332 332 330 330 330 329 328 327 327 326 325 325 323 322 321 320 320 320 320 319 318 317 316 316 316 315 314 313 312 312 311 311 311 311 311 311 311 311 312 312 312 313 312 312 313 312
320 322 324 326 327 327 328 328 328 329 329 329 329 330 330 330 330 331 331 331 331 330 329 329 328 329 329 330 330 330 329 328 328 328 329 329 329 329 330 331 331 331 330 329 328 328 328 327 326 325 324 324 323 322 322 322 322 321 320 320 318 316 315 315 314 316 314 313 312 313 313 313 314 314 314 314 314 316 316 316 316 314 314 314 314
315 317 319 322 324 326 327 327 328 328 328 328 328 329 330 330 330 331 331 330 331 330 329 328 329 328 328 328 329 329 329 328 327 327 328 329 329 329 329 329 329 330 330 329 327 328 328 327 327 327 325 325 324 324 323 321 320 319 319 319 317 316 316 314 314 317 316 314 314 315 315 316 316 315 315 316 317 318 318 317 316 315 314 314 314
311 312 313 316 319 322 324 325 326 327 327 327 327 329 329 329 329 330 331 330 330 329 328 328 328 328 329 328 328 328 328 328 327 327 327 329 329 328 327 327 327 328 329 328 328 328 327 326 326 325 324 324 324 322 320 318 317 316 316 317 316 316 316 315 315 318 317 314 315 316 316 318 318 317 318 319 319 319 318 317 316 314 313 313 313
309 309 310 311 313 316 319 320 321 323 325 326 326 327 328 328 328 329 330 330 329 329 329 328 328 329 329 329 328 327 326 327 327 326 326 327 327 327 326 326 325 325 326 327 327 327 326 325 325 324 322 324 324 321 319 317 315 313 312 314 315 316 317 317 318 319 317 315 316 318 319 320 320 320 320 320 320 319 318 317 316 313 312 311 311
306 307 307 308 309 311 313 314 315 317 320 322 324 324 325 327 327 327 329 330 329 329 329 329 329 329 330 329 328 327 326 326 327 326 325 326 326 325 324 323 322 323 324 324 324 325 324 324 325 325 323 323 323 321 319 317 315 313 312 314 317 317 318 319 318 318 318 317 318 320 320 320 320 320 320 320 319 318 317 316 315 313 310 309 309
305 305 305 305 306 307 309 310 311 312 313 316 319 322 324 325 325 326 328 328 327 327 327 327 327 328 328 327 327 326 326 326 326 325 324 325 325 325 323 319 319 320 322 322 322 323 323 323 324 324 322 321 320 319 318 317 316 314 314 316 318 318 318 319 320 319 319 317 317 319 321 320 320 319 318 318 317 317 315 314 313 311 309 308 307
303 303 303 303 303 304 305 306 308 308 309 311 315 317 320 322 322 323 324 324 323 323 324 325 325 324 324 325 325 324 325 326 326 324 323 323 322 322 320 317 316 316 316 317 318 319 320 320 320 319 318 316 315 314 313 315 315 315 316 318 319 319 320 321 321 321 319 316 314 315 317 319 318 317 316 315 314 313 313 313 312 310 308 307 306
302 302 302 302 301 302 302 303 305 306 307 309 311 313 316 318 319 320 321 320 320 321 321 321 322 322 323 324 324 324 325 325 325 324 323 321 321 320 318 316 314 312 311 312 314 314 315 316 315 315 314 314 314 313 313 314 316 317 319 320 319 319 320 321 321 321 318 314 310 310 313 316 315 314 313 311 311 311 312 312 310 309 308 307 306
303 303 302 301 301 301 300 301 304 305 307 308 310 312 315 317 317 318 318 318 318 319 318 318 317 318 320 322 322 323 323 323 323 323 321 320 319 319 317 316 314 312 311 311 311 311 311 312 311 312 313 313 314 315 314 315 316 317 318 318 316 317 318 318 318 318 317 314 308 307 312 315 312 311 310 308 308 309 310 310 308 307 307 307 305
Wind_Speed
13 13 14 13 12 12 12 12 13 13 14 13 14 14 13 13 12 11 11 10 10 9 7 7 7 6 6 6 6 6 6 6 6 6 6 6 5 5 7 6 6 7 6 6 5 5 6 7 7 6 7 7 7 8 10 12 13 13 14 14 14 14 14 13 12 11 12 12 12 12 12 12 12 12 12 12 13 13 14 14 15 15 16 16 16
12 12 12 12 12 12 12 13 13 13 14 14 15 15 14 14 13 11 11 10 10 9 8 7 7 6 6 6 5 5 6 6 5 6 6 6 6 5 5 6 8 7 6 6 5 6 6 6 6 6 6 7 9 11 14 15 15 14 14 14 14 14 13 12 11 10 11 11 12 11 12 12 12 12 12 12 12 13 14 14 15 15 15 15 15
12 12 11 11 12 12 13 13 13 13 14 15 15 16 15 15 14 12 11 10 10 9 8 8 7 6 6 6 5 5 5 5 5 5 5 6 7 6 5 6 7 7 6 6 6 6 7 6 6 5 6 9 12 14 15 15 14 13 12 12 12 12 12 12 11 10 9 10 11 11 11 11 11 11 11 11 12 12 13 13 14 14 14 14 14
12 12 11 11 12 13 13 13 14 13 14 15 15 15 15 15 14 13 11 10 9 9 8 8 7 6 6 6 5 4 5 5 5 5 5 5 6 6 6 6 6 6 7 7 8 7 6 6 6 6 8 10 12 13 13 13 12 11 10 10 9 10 10 10 10 9 9 9 9 10 10 10 10 10 10 11 11 11 12 13 14 14 13 13 13
12 12 12 11 11 13 14 14 14 14 14 14 15 15 15 14 14 13 11 10 10 9 9 8 8 7 6 6 5 4 4 4 5 5 5 4 4 4 5 7 6 6 7 8 7 5 5 7 8 7 7 8 8 9 9 9 8 7 6 6 6 7 7 8 8 8 8 8 8 9 9 9 9 10 10 10 10 10 11 13 14 14 13 13 13
13 13 12 11 12 13 14 15 15 15 15 15 15 15 15 15 14 13 12 11 10 10 9 8 8 7 7 6 5 5 4 4 5 5 5 4 4 4 4 5 6 6 7 7 6 6 8 9 8 7 6 6 6 6 5 5 5 4 4 4 4 5 5 6 6 7 7 7 8 8 8 8 9 10 10 10 10 11 11 13 13 13 13 13 13
14 14 13 13 12 13 14 15 16 16 16 16 15 15 15 15 15 14 13 12 11 10 9 8 8 8 7 6 5 5 5 5 5 5 4 4 4 4 4 4 5 7 8 7 7 9 10 9 7 7 6 6 6 5 4 4 4 4 3 3 3 4 4 5 5 6 6 6 7 8 8 9 10 10 9 9 11 12 12 12 12 12 12 13 13
15 14 14 14 13 14 15 14 15 16 16 16 16 15 15 15 15 15 14 13 12 11 9 9 8 8 7 7 6 6 5 5 5 5 4 4 4 3 4 5 5 6 7 7 8 8 8 8 7 7 6 6 5 6 5 4 2 2 3 3 4 4 4 5 5 5 5 6 7 7 7 8 9 10 10 10 11 12 13 13 12 11 12 12 13
15 15 14 14 14 14 15 15 15 15 15 16 17 16 15 16 15 15 15 14 13 11 10 9 9 8 8 7 7 6 5 4 5 5 4 4 4 3 4 5 5 6 6 6 7 7 7 7 6 6 6 5 5 4 4 3 1 1 3 5 5 5 5 5 5 5 4 5 6 7 7 8 9 9 10 11 11 12 14 14 12 10 10 11 12
15 15 14 14 14 13 14 15 14 14 14 15 16 15 14 15 15 15 15 14 13 12 11 10 10 9 9 9 8 6 5 5 5 5 5 4 4 4 4 5 5 4 4 5 6 6 5 5 5 4 5 5 4 4 3 2 2 1 3 6 6 6 5 4 5 6 5 5 6 6 7 8 8 8 9 11 13 14 15 12 10 11 11 11 11
16 16 15 15 14 13 13 14 14 13 14 14 15 15 14 14 15 15 14 13 12 11 11 11 10 10 9 8 8 7 6 6 6 5 5 5 5 4 4 5 5 5 4 4 3 3 3 3 3 5 5 5 6 6 5 2 0 2 4 6 6 6 4 3 4 6 5 6 6 7 8 8 8 8 9 11 15 16 12 9 11 12 12 11 10
18 17 16 15 15 14 14 15 14 14 14 14 15 16 15 15 15 15 15 13 12 11 11 11 10 9 8 8 7 6 6 6 6 6 6 6 6 5 5 5 5 5 5 5 4 4 4 3 2 3 3 3 4 5 4 3 2 1 5 7 7 5 3 3 3 5 5 6 7 8 9 9 8 9 9 13 16 13 10 10 11 11 11 10 10
20 19 16 16 15 13 14 15 15 14 14 13 13 14 14 14 14 15 15 15 13 12 12 11 10 8 7 7 6 6 6 6 7 7 7 7 7 6 5 5 6 6 6 5 5 5 5 4 3 3 2 2 2 2 2 2 2 4 7 8 6 3 3 4 4 5 6 6 7 9 10 9 9 10 10 13 13 10 10 11 10 10 11 11 10
18 18 17 16 15 14 14 15 15 14 13 12 12 12 13 13 14 15 15 15 14 13 14 12 10 10 8 7 6 6 6 6 7 8 8 7 7 7 7 7 7 6 6 6 6 6 5 4 3 3 3 2 3 3 3 4 6 8 10 7 4 4 5 6 5 5 6 6 7 9 10 10 10 10 10 11 10 9 10 10 9 9 10 10 10
16 17 17 14 13 15 14 12 13 13 12 12 11 11 13 13 14 14 14 14 12 13 15 14 11 10 10 7 5 6 6 7 8 9 9 8 8 8 7 8 8 7 7 6 6 6 5 4 3 2 3 3 3 4 6 8 9 9 9 6 4 6 7 7 5 5 7 7 8 11 11 11 10 10 10 10 9 9 9 8 7 7 7 8 8
14 14 17 15 14 17 14 11 13 13 12 12 12 12 12 13 14 14 14 14 12 13 15 15 14 11 9 7 6 6 5 6 9 9 10 9 9 9 8 8 9 9 9 7 7 6 5 4 3 3 4 5 3 5 9 10 9 8 6 4 6 10 9 6 5 7 8 9 11 13 12 12 11 10 10 9 9 9 8 7 6 5 6 7 7
12 13 16 16 16 17 14 12 13 13 13 12 12 13 13 14 16 16 17 16 13 13 13 15 16 13 10 6 5 5 4 7 9 8 10 11 10 10 9 8 9 10 10 9 8 6 5 5 4 4 5 6 5 7 11 10 8 7 5 5 9 12 10 6 6 8 10 12 14 14 12 12 12 11 10 9 8 7 6 6 5 5 6 7 7
13 13 14 15 16 18 16 14 14 14 14 13 13 15 16 16 18 19 20 18 14 13 13 14 15 14 13 7 2 3 2 7 7 5 9 11 10 10 10 10 9 10 11 10 9 7 6 5 5 4 6 8 6 8 10 8 8 7 6 7 10 11 10 8 8 10 12 13 14 13 12 12 12 11 9 8 7 6 5 5 5 6 7 7 7
11 12 14 14 15 17 17 15 14 13 14 15 16 17 19 19 19 20 21 19 15 14 14 14 15 15 14 11 6 4 1 5 6 4 6 8 9 11 10 11 11 12 12 11 10 8 7 6 5 6 7 9 8 8 9 7 8 8 7 9 10 10 10 8 9 11 12 12 13 12 12 11 11 10 8 7 6 5 5 5 6 7 8 8 8
8 10 12 14 14 15 15 15 14 13 14 16 18 19 20 20 19 19 20 20 19 18 15 14 15 15 15 14 10 7 5 6 6 4 4 5 8 10 10 11 12 13 13 11 11 9 8 7 6 6 8 9 9 8 8 7 7 8 8 10 11 11 10 9 10 11 12 11 11 12 12 11 10 8 6 5 5 5 6 6 7 8 8 9 8
9 9 10 11 15 17 17 16 14 13 13 14 17 19 20 21 21 20 19 18 19 20 18 15 15 14 14 14 12 10 9 9 7 7 6 5 6 8 10 12 12 13 13 12 11 10 10 9 8 7 8 8 9 8 7 7 7 7 8 10 11 12 11 9 10 12 12 12 12 13 11 10 9 7 5 5 5 6 6 7 8 8 9 9 9
12 11 10 10 15 19 19 19 18 16 13 12 15 17 19 21 21 20 20 18 18 20 20 18 17 15 13 13 12 11 11 10 9 9 7 6 6 7 11 13 11 12 14 14 13 12 11 10 9 9 9 9 9 8 7 7 7 8 8 10 12 13 12 11 11 12 12 12 12 12 10 9 9 7 6 6 6 6 7 8 8 9 9 9 9
12 11 11 12 15 19 21 22 20 18 15 14 16 18 20 22 21 20 21 21 21 20 19 18 17 15 14 13 12 12 12 11 10 10 8 7 6 6 10 12 12 13 15 15 14 13 12 12 11 10 10 10 10 9 7 7 8 9 9 10 13 15 14 13 12 11 11 11 10 10 10 10 9 8 7 7 6 7 7 8 8 9 9 9 9
11 11 12 12 13 17 20 22 22 19 17 16 16 17 20 21 21 20 18 20 22 21 18 18 16 14 14 13 12 13 13 11 9 9 9 8 7 6 9 11 10 11 15 15 14 14 13 13 12 11 11 10 10 9 8 8 9 11 10 10 13 16 16 14 13 12 11 10 10 10 10 10 9 8 7 7 7 7 7 8 8 8 9 9 9
10 11 13 15 15 16 18 21 23 20 16 16 17 18 20 20 20 19 19 19 20 21 20 18 15 14 13 13 13 13 13 12 11 9 10 9 9 8 8 11 9 9 12 14 14 14 14 13 12 12 11 11 10 10 9 8 9 11 11 11 13 16 17 15 14 13 11 10 11 11 10 10 8 7 7 7 7 7 8 7 7 7 8 9 9
10 11 12 14 17 17 16 18 20 18 15 15 18 20 20 20 21 20 19 18 18 21 22 17 15 15 13 14 15 15 14 14 14 12 11 11 10 9 8 9 9 9 10 11 13 13 12 13 13 12 12 11 11 11 10 9 10 12 11 11 13 15 16 16 15 14 12 11 11 11 11 9 8 8 7 7 8 8 8 7 7 7 7 8 8
11 11 11 12 14 16 16 17 17 16 15 15 17 20 20 22 23 21 19 18 18 20 21 18 16 16 16 16 16 15 15 15 14 13 13 12 11 11 10 8 7 8 8 10 12 13 13 13 13 13 12 12 12 12 11 10 10 12 12 10 11 14 14 14 14 13 13 12 11 11 10 9 8 8 8 8 8 7 7 7 7 7 7 7 7
12 12 12 12 13 14 16 17 17 16 16 16 17 20 22 22 22 21 19 19 20 21 20 18 17 17 17 18 18 17 16 16 16 14 14 12 11 11 12 11 8 7 7 8 9 11 13 13 13 13 13 13 13 13 12 11 11 13 13 10 10 12 13 13 13 13 13 12 11 10 9 9 9 10 10 9 8 7 6 7 7 7 8 7 7
14 13 13 14 13 13 14 16 17 16 17 18 17 19 22 23 23 23 21 19 19 20 19 18 18 18 17 18 20 19 18 18 16 15 14 12 11 12 13 13 11 8 6 7 7 10 14 16 14 14 15 15 14 13 12 11 12 13 13 11 10 11 12 13 13 13 13 12 12 11 10 10 11 11 11 10 8 7 7 7 7 8 8 8 7
16 14 14 14 13 12 13 14 16 17 17 18 17 18 21 23 23 22 21 21 20 19 20 19 18 18 18 18 19 19 19 18 16 15 15 13 12 13 14 14 13 10 8 7 7 10 14 16 14 14 16 17 15 14 13 12 13 13 13 11 11 12 12 12 13 13 13 13 13 13 12 12 12 12 11 10 10 9 8 8 8 8 8 8 8
16 15 14 14 13 13 13 14 15 17 18 18 17 17 19 22 22 20 20 22 21 20 20 19 17 17 18 18 18 19 20 19 17 16 16 15 15 14 14 14 13 11 10 8 6 9 13 14 14 13 16 17 15 14 14 12 13 14 13 11 11 12 12 12 13 14 14 14 14 14 14 13 13 13 12 11 11 11 10 10 9 9 9 9 9
16 15 15 15 15 14 14 14 15 17 19 20 20 18 17 18 20 20 21 22 22 20 19 17 16 17 17 17 20 21 21 21 20 18 17 17 16 15 14 14 13 11 11 9 7 8 10 11 13 12 14 16 15 15 14 12 12 15 13 10 12 14 12 11 13 14 14 15 15 14 14 14 14 13 13 12 12 12 11 11 11 11 11 10 10
16 15 14 14 15 15 15 14 15 17 18 21 23 20 17 18 20 20 19 22 22 21 19 17 17 18 17 17 20 21 21 21 20 18 18 18 17 16 15 14 14 13 11 11 9 8 8 8 11 12 14 16 15 15 15 12 13 16 14 11 12 14 12 11 12 14 15 15 15 15 14 14 14 13 13 13 13 13 13 13 13 12 12 12 11
15 14 14 13 14 16 16 15 16 16 16 20 22 20 18 19 21 21 20 21 22 20 19 19 18 18 18 17 18 21 22 22 21 19 18 18 17 17 16 15 14 14 13 13 11 10 10 9 10 11 13 15 15 15 16 14 13 15 14 12 12 13 12 11 11 13 15 15 15 15 14 14 14 14 14 14 14 14 14 14 14 13 13 12 12
14 14 14 14 15 17 16 16 18 18 17 18 19 19 20 20 21 22 21 22 22 21 20 21 20 19 18 18 18 22 23 22 21 20 18 19 18 17 17 15 14 14 14 14 13 11 12 12 12 11 13 15 15 15 16 14 13 14 14 14 13 12 12 12 11 11 14 16 15 15 15 15 15 15 15 15 15 15 15 14 14 14 13 13 13
14 15 14 13 15 17 18 18 19 19 19 20 20 20 21 21 21 21 21 22 23 23 21 21 21 20 18 18 19 22 23 21 21 20 18 18 18 17 17 15 14 14 13 14 13 12 12 13 13 11 12 15 15 14 15 14 13 14 14 13 13 13 13 13 12 10 12 15 16 16 15 15 16 16 16 16 16 15 15 15 15 15 15 15 15
15 16 16 14 14 16 18 18 19 19 20 21 21 21 21 20 21 22 21 22 24 24 22 21 21 20 19 19 21 23 23 21 22 20 18 18 18 17 16 15 15 14 13 13 13 13 12 12 12 10 11 15 16 14 14 14 14 14 13 13 12 13 13 12 12 11 13 16 17 17 17 17 17 17 17 17 17 17 17 16 16 16 16 17 17
16 17 17 16 16 16 17 18 19 19 20 21 21 22 22 21 21 21 21 23 23 22 20 19 20 20 19 19 23 25 22 20 22 20 18 19 19 17 17 16 15 14 14 14 13 13 12 12 13 11 10 13 15 14 14 14 14 13 13 13 12 12 12 12 12 12 13 15 17 18 19 18 19 18 18 18 18 18 18 18 18 18 19 19 20
15 16 17 17 17 16 17 18 19 19 19 20 20 21 21 21 21 20 20 22 22 20 19 18 19 19 18 20 24 24 21 20 23 21 19 19 18 18 17 16 16 15 15 14 14 14 12 9 11 13 12 12 14 14 14 15 13 13 13 13 13 12 12 13 13 12 12 12 14 17 19 19 19 19 19 19 19 20 20 20 20 20 21 22 23
14 15 16 17 18 16 16 18 19 19 20 21 21 21 21 21 20 20 20 20 19 19 19 18 18 18 18 20 23 23 20 21 24 22 20 20 18 17 17 16 16 16 15 15 15 14 13 11 10 12 13 13 13 13 14 15 14 14 14 13 13 13 13 13 13 13 12 12 12 14 16 17 18 19 20 20 20 20 20 20 21 21 22 23 23
13 14 16 17 18 18 17 17 18 19 21 22 23 23 22 21 20 20 21 20 18 18 19 19 17 16 17 19 21 21 19 19 21 18 16 19 18 17 17 17 17 17 16 16 14 14 15 15 14 14 14 15 15 14 14 14 15 14 13 13 12 11 12 12 12 13 13 12 12 12 13 14 15 16 17 18 17 17 17 17 17 17 17 17 18
15 15 16 17 18 18 19 19 19 20 22 22 24 25 24 23 22 20 21 20 19 19 19 19 16 15 17 18 17 18 19 17 17 15 14 18 18 16 15 16 16 17 17 16 16 15 15 15 16 18 18 16 16 15 14 13 13 12 12 13 12 11 10 10 10 11 12 11 11 11 12 12 12 13 13 14 13 12 11 11 10 11 11 12 13
18 17 16 17 17 18 20 21 20 21 23 24 24 25 25 25 23 21 21 21 20 21 20 18 16 15 17 17 13 14 17 15 14 15 15 17 19 16 14 15 16 16 15 15 16 16 16 17 19 20 19 17 15 14 13 11 11 11 10 11 11 12 11 10 10 10 11 11 10 10 10 10 11 11 10 10 9 7 7 8 10 9 9 10 10
17 16 15 16 16 16 19 22 22 23 25 26 25 26 27 28 24 20 19 19 20 21 19 16 15 15 16 18 15 13 14 12 12 15 17 18 19 17 16 16 17 17 15 13 12 13 12 12 13 14 15 14 14 14 11 10 9 8 8 9 10 11 11 11 10 8 10 10 9 9 9 9 9 9 8 8 6 5 7 10 10 9 9 9 10
15 13 13 14 15 15 16 19 21 22 23 23 23 26 28 30 27 20 17 18 19 19 17 16 15 14 14 17 16 13 13 13 12 13 16 18 18 16 16 15 14 16 17 14 12 11 9 8 5 10 12 9 10 11 11 10 9 7 5 4 6 9 10 11 9 7 9 9 8 7 8 8 7 6 6 6 4 4 6 9 9 9 9 10 11
15 14 12 12 12 12 13 14 14 15 17 18 18 21 27 31 29 22 16 16 18 18 17 17 16 15 15 16 16 15 15 16 14 12 13 15 15 13 11 9 8 10 12 12 12 13 12 9 6 9 12 9 7 9 10 8 8 8 7 3 5 8 9 8 6 6 7 6 6 6 7 7 6 5 5 5 3 3 6 9 9 9 8 8 9
15 14 12 11 10 10 10 10 11 11 15 18 19 22 27 29 27 22 18 17 18 19 18 17 16 15 16 16 16 17 17 16 15 14 13 13 12 11 10 8 8 9 10 9 9 9 10 10 7 9 14 13 9 9 8 8 7 8 9 6 6 8 9 8 7 7 6 4 3 4 6 6 6 3 4 3 2 3 5 8 9 8 8 8 9
14 14 13 13 11 9 7 5 5 7 10 14 19 23 25 25 22 21 20 19 19 21 21 19 17 15 14 15 16 17 17 15 15 16 16 14 13 13 11 9 8 10 10 10 11 10 10 12 11 11 14 14 12 10 9 9 9 7 7 8 9 11 12 10 10 10 7 4 4 3 5 4 4 3 5 4 5 6 5 5 7 9 8 8 10
14 14 14 15 14 13 10 8 5 2 2 5 11 17 20 19 17 17 18 19 20 20 20 20 20 18 16 16 16 16 16 16 16 17 18 16 15 14 13 11 10 8 7 9 11 11 12 12 11 11 11 11 10 10 9 11 14 11 9 10 11 11 11 9 9 11 8 3 4 4 3 5 4 5 6 6 8 8 7 5 5 9 10 10 11
14 14 14 15 18 17 15 14 14 12 9 6 4 8 13 14 13 11 14 17 20 19 18 18 19 19 18 17 16 15 16 16 16 18 18 16 16 16 15 15 14 12 12 15 16 14 13 13 12 12 13 12 13 14 14 15 18 15 9 8 7 6 8 7 6 8 9 4 2 3 2 4 3 2 4 5 7 7 5 3 3 6 8 10 12
14 13 14 17 20 21 20 20 21 19 17 14 10 9 10 12 12 10 11 15 20 21 20 18 16 16 17 17 16 15 15 15 16 18 18 16 15 17 17 16 17 15 14 17 20 20 18 18 18 18 17 17 16 16 15 16 16 13 8 8 6 2 5 4 3 5 6 4 4 4 0 2 1 1 1 4 5 4 3 2 4 5 6 7 9
Wind_Direction
187 189 186 184 180 175 172 169 167 172 179 185 186 184 181 177 176 175 171 167 162 159 158 151 147 145 138 133 131 126 122 120 120 117 118 121 125 148 163 163 146 138 136 134 135 133 125 123 123 123 122 125 129 124 116 113 113 113 111 108 103 99 96 94 95 92 90 92 91 89 87 82 81 79 78 77 77 76 75 74 72 70 70 70 71
190 188 186 187 184 181 177 172 170 172 177 184 186 186 183 175 174 178 174 170 167 163 162 159 158 152 145 142 139 135 129 127 127 123 123 128 131 145 160 162 153 146 143 141 135 130 128 130 131 131 133 133 127 120 114 113 112 112 110 108 105 101 97 93 94 93 92 93 92 93 93 89 86 83 81 78 77 77 76 75 73 71 71 71 70
194 188 186 189 189 187 182 177 175 172 176 182 186 190 186 176 176 180 176 175 171 166 168 165 164 161 153 151 147 142 135 132 133 132 131 133 135 138 150 158 154 150 148 142 139 135 133 137 135 130 128 124 121 118 116 116 113 112 112 109 106 102 99 96 94 95 95 93 91 92 94 93 92 91 88 84 81 80 78 76 75 72 71 71 70
198 194 191 191 193 193 188 184 180 176 177 180 185 192 192 183 181 184 183 181 175 172 174 170 170 167 157 157 155 151 146 142 139 137 137 137 137 141 157 165 159 162 160 153 154 150 145 144 139 137 130 119 119 121 121 121 118 114 111 106 104 102 101 99 96 96 98 98 95 90 91 91 90 94 96 92 88 86 83 81 78 74 71 71 73
201 199 194 193 195 196 193 189 184 179 177 177 182 191 195 190 185 189 190 187 183 179 179 176 174 168 160 161 162 160 157 154 148 143 143 143 140 140 159 164 157 163 169 171 176 173 158 148 143 142 132 124 129 130 126 123 117 114 109 102 101 104 106 104 101 99 99 101 98 91 90 88 83 87 93 94 93 92 90 86 80 75 71 71 74
203 201 198 196 197 199 196 192 187 181 176 175 180 188 195 194 191 191 192 192 189 185 186 183 177 171 165 166 171 170 167 163 152 149 152 148 148 152 157 159 151 152 162 174 181 167 144 139 141 143 139 144 152 148 137 129 121 120 114 101 96 105 112 117 118 114 108 103 102 98 90 83 79 81 85 89 91 91 92 91 85 76 70 73 75
203 201 200 199 198 199 198 193 189 184 180 179 181 188 194 198 198 195 195 196 193 192 195 191 185 179 170 173 180 178 175 170 157 153 161 159 163 168 158 156 157 153 151 152 155 149 141 142 150 152 155 163 168 166 161 161 153 140 123 98 94 106 110 119 127 128 126 115 110 107 94 85 77 78 82 84 87 88 91 95 90 79 72 76 80
205 203 202 203 200 198 198 194 191 190 189 187 188 191 192 197 200 200 200 198 196 197 199 198 193 184 178 179 183 186 183 171 163 163 173 178 173 171 162 159 159 151 147 148 155 155 148 152 160 162 168 179 193 187 172 174 167 126 109 102 104 111 112 117 120 123 128 124 118 112 101 93 81 79 80 82 91 92 92 95 90 80 75 79 84
208 207 206 206 203 199 198 193 190 193 195 194 195 196 193 194 197 200 202 202 199 195 197 202 197 187 184 185 187 191 187 173 170 172 185 190 174 177 176 158 148 146 152 165 173 168 158 162 168 172 179 195 221 213 181 172 159 71 98 116 118 110 102 105 116 123 125 125 124 119 111 103 93 84 78 85 101 100 94 93 86 79 79 83 88
215 212 211 210 207 203 198 192 189 191 195 198 199 198 195 195 196 198 201 204 201 194 196 199 197 192 188 190 192 187 181 185 184 181 190 192 179 186 183 156 150 160 172 183 181 172 168 176 186 202 209 217 242 259 258 211 153 110 114 125 125 111 93 88 112 127 127 127 130 127 122 112 103 92 83 97 110 104 98 95 86 81 83 88 89
226 217 214 212 208 206 198 191 189 189 194 199 200 197 193 195 194 193 195 201 199 195 196 196 195 195 190 190 190 183 186 192 192 191 194 191 187 195 192 170 168 179 186 192 198 194 188 188 201 213 215 222 243 260 274 279 61 106 136 140 131 114 98 93 117 129 125 126 131 131 130 121 110 101 96 111 115 109 103 94 87 83 79 83 87
239 228 219 215 210 206 200 192 189 190 194 198 202 199 193 195 194 189 190 196 196 192 192 192 189 185 183 184 183 184 191 195 199 197 193 191 192 200 201 189 185 190 196 202 208 213 209 202 202 203 191 203 237 257 269 273 286 177 161 151 134 116 110 123 133 138 138 134 132 134 136 128 116 109 107 117 119 112 103 95 90 83 74 78 83
253 243 232 224 215 209 202 195 191 191 194 196 202 201 196 198 195 191 193 196 194 190 187 186 184 177 174 180 186 193 194 196 205 201 193 190 194 204 207 203 200 196 202 212 216 215 211 201 194 200 186 173 191 221 263 243 204 152 146 139 128 113 111 120 117 128 142 147 142 139 139 133 122 118 119 123 122 111 103 100 92 81 77 79 83
264 253 244 234 225 222 210 197 192 191 191 192 198 200 199 202 198 194 195 197 195 194 188 183 190 190 180 180 188 194 197 199 206 204 197 190 196 208 211 212 209 204 208 217 225 221 214 208 202 194 181 174 156 137 131 140 138 128 127 129 126 110 104 108 108 125 140 149 149 143 139 135 128 127 130 128 121 111 108 104 94 85 81 84 90
270 261 254 246 237 237 226 202 195 192 187 190 197 199 200 203 203 197 193 194 197 199 193 192 206 202 187 193 193 186 195 200 204 206 197 191 199 207 215 220 212 208 213 218 227 224 216 208 196 190 172 157 154 147 135 136 139 135 131 135 132 116 106 106 115 141 153 154 149 145 142 137 132 132 132 125 118 114 111 103 96 89 81 87 97
274 267 260 257 249 247 240 214 203 198 190 192 197 201 204 205 205 200 191 192 197 200 198 203 216 211 198 202 184 185 204 191 192 196 190 190 200 205 213 220 210 208 215 219 225 222 217 206 178 180 167 149 162 152 140 142 144 144 142 133 124 119 112 117 132 138 145 147 144 143 143 139 135 132 130 125 121 117 110 102 93 86 87 97 103
268 262 256 256 250 246 241 222 210 202 192 192 197 204 212 212 209 204 200 202 200 197 199 205 214 218 221 217 178 203 214 169 175 185 185 191 199 203 210 215 210 209 211 215 220 214 211 204 175 172 160 150 164 141 135 143 137 134 136 126 129 127 125 140 149 132 131 137 139 140 141 140 137 132 128 123 118 113 105 97 89 89 99 104 105
264 259 253 247 242 238 234 224 215 205 196 195 202 210 216 218 215 210 211 212 205 200 202 205 212 220 229 237 236 265 222 160 173 180 182 194 196 197 205 209 206 204 205 208 209 204 204 194 170 177 163 152 161 139 133 142 140 142 143 136 139 139 138 143 143 134 131 133 136 138 140 140 136 130 123 115 108 106 100 95 96 103 106 105 105
264 260 255 245 241 239 233 229 224 215 207 205 209 215 220 223 219 215 216 215 207 207 208 201 205 214 219 227 230 256 257 177 193 182 176 192 193 193 200 202 203 202 201 204 200 196 199 189 171 180 171 158 162 150 141 144 151 162 158 145 146 147 144 139 138 139 135 133 136 138 139 139 138 130 116 104 100 101 101 105 109 109 107 105 106
262 257 253 243 242 241 235 234 230 222 218 215 217 219 219 223 223 219 218 218 212 212 214 204 202 207 208 215 220 221 224 212 215 216 199 192 184 188 193 196 205 207 199 199 200 193 193 188 174 179 176 165 163 155 147 143 144 157 156 147 152 153 146 138 140 142 137 134 135 136 138 141 143 133 110 100 103 107 111 114 111 109 109 108 108
264 252 244 235 236 236 231 230 228 227 223 220 226 225 220 224 227 222 219 220 213 214 219 212 206 207 201 206 213 213 217 216 217 226 225 209 187 184 184 188 204 212 202 197 198 196 195 188 174 178 181 170 164 158 155 149 139 149 154 149 156 159 150 144 145 141 139 140 138 138 142 147 149 141 126 117 114 114 115 114 112 109 110 109 109
270 258 246 236 236 239 236 232 232 233 228 228 238 234 226 229 230 226 223 222 216 216 223 218 209 207 201 202 205 204 210 211 211 219 220 216 208 190 184 188 197 202 199 197 196 195 194 188 177 179 183 177 170 165 163 154 145 157 160 150 158 163 156 154 153 145 147 148 144 144 147 149 151 152 147 131 119 119 118 118 116 114 113 112 112
275 266 254 241 240 246 244 238 237 235 227 230 240 238 233 233 232 231 229 226 224 222 228 228 216 206 202 204 207 205 209 210 206 208 212 210 208 193 186 194 199 193 192 196 196 194 192 189 184 182 184 180 176 172 166 157 160 172 168 154 160 168 165 163 164 160 160 158 154 154 154 153 155 156 151 133 123 124 123 122 122 121 120 116 114
268 262 254 246 242 245 243 239 239 234 223 220 227 233 235 234 234 235 233 231 228 222 226 232 223 209 205 207 211 212 213 215 209 205 210 208 204 200 187 189 197 190 185 190 194 195 196 192 186 186 185 181 178 179 172 165 176 179 168 159 164 172 175 173 173 176 175 172 173 171 164 162 160 156 148 135 132 134 135 134 131 129 127 122 119
255 254 254 252 248 243 238 237 236 231 219 211 212 220 228 231 232 234 232 231 226 218 221 228 223 214 211 209 213 215 213 215 215 211 211 209 208 208 190 184 192 184 176 187 195 195 197 196 190 188 186 182 181 184 179 173 183 179 165 163 168 173 181 183 182 187 189 191 192 182 171 167 162 157 151 144 147 150 147 142 135 134 131 128 127
245 247 249 251 252 249 244 240 238 232 220 206 202 208 215 220 223 225 225 225 222 220 222 225 223 219 217 214 213 214 214 213 213 212 208 207 211 207 187 181 190 182 173 189 200 196 194 195 194 190 186 186 185 186 185 181 186 180 167 169 173 173 181 187 189 193 196 198 195 185 178 176 170 166 164 159 159 157 150 143 138 138 136 135 137
237 244 243 241 245 248 248 245 243 237 225 211 202 199 200 207 217 222 224 224 224 223 223 221 220 217 216 219 217 215 215 213 212 213 210 208 210 204 189 182 186 184 180 189 200 204 198 192 193 191 188 189 189 189 188 186 192 185 169 170 181 179 179 184 187 190 193 194 192 189 191 192 186 178 170 167 166 160 152 149 148 149 148 149 150
232 239 239 236 238 243 247 247 246 240 232 221 207 197 194 201 211 214 216 220 221 221 220 218 218 215 213 216 219 217 216 213 210 213 215 211 209 205 197 194 192 186 188 191 199 207 200 191 190 190 190 192 192 192 189 188 197 189 169 171 187 186 182 183 186 187 189 193 193 195 201 201 193 180 170 169 169 166 160 159 160 161 163 165 165
231 235 235 237 237 238 241 245 245 243 238 229 217 205 202 205 207 206 209 215 218 219 218 217 216 216 215 215 216 216 219 219 210 207 213 211 207 207 203 204 205 196 192 194 198 205 197 191 190 187 191 193 192 194 191 192 201 190 175 178 189 192 188 184 186 187 187 192 194 194 196 194 187 178 174 176 174 174 173 171 173 174 175 178 178
234 232 230 233 235 234 234 237 240 240 238 233 225 215 210 210 211 210 210 212 214 216 217 216 214 215 217 215 214 216 221 224 212 201 207 206 204 209 207 209 214 210 205 198 197 201 193 192 193 188 188 189 191 195 193 196 203 190 182 187 189 195 195 187 188 189 188 191 191 191 191 190 189 185 183 184 182 182 183 183 186 186 185 189 190
240 230 225 228 229 229 228 230 233 234 234 232 226 217 211 210 211 210 210 211 214 217 217 216 213 214 215 210 209 214 219 223 215 202 203 205 204 208 208 211 216 218 216 210 202 196 189 191 196 188 185 186 189 194 190 194 201 190 184 190 197 201 198 192 194 191 191 194 192 192 192 192 194 194 193 193 190 189 189 190 192 192 195 199 201
246 233 225 225 226 226 224 226 229 231 231 229 225 220 214 212 210 208 207 209 213 218 218 214 210 212 212 207 206 209 213 219 215 203 201 205 205 207 209 209 212 214 215 219 213 188 179 188 192 186 184 184 186 192 187 186 195 192 185 190 204 207 199 199 203 198 196 198 196 195 197 197 199 200 200 200 197 194 193 194 195 198 204 208 211
251 240 231 227 228 229 227 226 229 231 229 226 225 221 217 213 212 209 207 208 212 216 216 211 208 208 209 210 209 207 210 217 213 202 201 205 204 207 209 207 209 209 207 216 214 177 162 183 190 184 182 182 186 193 190 183 188 191 188 191 204 205 196 200 209 207 203 201 200 200 200 202 204 205 207 206 203 201 198 199 201 203 209 215 220
254 248 242 237 234 232 231 229 228 227 225 223 222 219 214 212 212 211 209 209 211 212 211 207 205 204 205 209 209 206 210 217 214 203 201 204 203 206 208 206 208 206 203 212 212 179 164 180 186 180 179 184 190 193 192 187 184 188 191 194 199 199 197 198 206 213 212 207 205 205 203 205 206 208 210 209 207 205 203 205 208 211 217 223 229
261 255 252 249 244 238 234 232 229 226 223 219 216 215 213 210 208 207 207 208 209 209 208 206 203 203 203 203 204 205 207 216 216 205 199 204 206 207 207 206 207 207 204 210 214 197 182 181 184 182 182 190 195 193 192 190 186 189 195 197 198 199 201 202 203 214 221 215 211 210 208 208 210 210 212 212 210 210 210 213 217 222 228 234 241
265 260 256 252 248 242 238 237 234 229 223 218 214 212 212 210 207 205 206 208 209 208 207 204 201 202 203 201 201 203 204 211 217 209 200 203 207 207 207 205 205 206 204 206 212 211 197 183 186 190 186 189 195 191 188 189 190 193 196 197 199 201 203 205 204 212 228 223 215 214 214 212 214 215 215 216 216 216 218 222 227 232 238 244 251
263 261 257 248 242 242 241 239 238 233 225 221 219 214 211 210 209 208 208 209 210 209 207 203 198 199 203 201 199 201 202 208 215 211 201 201 205 205 204 204 204 203 202 203 205 209 202 188 186 191 186 185 190 191 188 188 189 193 198 199 200 202 203 206 205 211 230 230 220 217 218 218 219 220 220 222 223 225 229 232 236 241 246 252 257
264 262 261 253 243 242 243 241 241 238 230 225 222 217 213 210 209 210 210 209 210 209 204 200 196 198 202 200 197 200 204 209 212 209 202 201 203 203 203 204 204 202 200 201 201 203 204 194 185 183 183 184 186 188 191 191 190 192 196 199 202 204 203 204 205 208 223 231 227 224 223 223 225 225 226 229 231 234 237 241 245 250 255 259 262
270 265 264 259 249 243 243 241 240 239 234 226 222 219 214 209 207 208 208 209 209 205 201 198 195 196 201 200 198 200 204 210 211 207 202 200 200 201 202 203 205 206 204 203 201 199 198 195 189 185 185 185 185 188 191 193 195 197 196 197 201 204 204 207 209 207 211 220 227 232 232 233 234 236 236 237 240 244 247 251 255 258 262 265 268
277 270 264 259 252 246 243 242 241 240 235 228 223 221 216 211 208 205 204 205 202 197 197 196 193 196 200 200 201 203 204 212 215 209 199 196 198 200 200 202 207 208 209 208 202 194 188 188 192 191 186 184 186 190 189 190 197 203 203 203 204 203 203 208 211 210 209 208 216 230 237 239 242 244 246 247 248 251 253 257 262 265 268 272 274
290 280 269 261 255 250 246 244 243 241 237 231 226 224 217 209 205 203 201 199 194 191 192 191 190 195 198 200 204 204 202 215 224 215 199 197 200 201 198 201 206 207 212 214 203 189 186 189 194 198 195 189 187 187 184 187 198 204 204 207 210 207 202 204 209 211 210 209 212 220 227 232 234 237 242 248 252 255 259 263 266 269 270 271 271
312 302 289 275 263 256 252 248 244 242 238 232 227 223 215 205 200 198 196 193 189 184 184 186 186 190 195 199 204 205 204 215 225 220 209 205 206 206 200 198 203 206 211 214 207 197 191 194 202 206 203 196 190 188 187 190 198 201 200 203 207 207 201 202 205 203 205 211 214 219 223 220 220 227 231 235 243 255 263 262 262 268 271 269 269
323 318 308 293 278 266 258 253 248 244 240 234 227 222 215 207 200 194 191 189 185 182 182 183 183 186 193 194 197 206 208 213 220 221 216 209 209 212 204 198 203 210 212 216 219 213 200 198 205 207 205 199 190 186 190 190 192 198 198 198 203 205 204 208 205 192 194 204 208 219 225 212 212 228 234 231 231 229 225 229 238 253 268 271 274
333 328 317 306 294 278 267 260 254 250 246 240 230 222 214 205 197 191 187 182 179 181 182 179 178 184 191 190 188 197 203 203 213 218 212 206 209 212 208 205 207 209 211 216 227 228 220 219 213 195 192 199 191 183 183 175 172 188 199 200 204 201 202 212 211 182 174 185 196 215 220 205 210 235 245 240 231 204 206 227 241 256 270 275 278
343 339 329 316 302 287 277 267 260 257 254 246 233 225 217 205 196 191 184 178 178 180 179 177 178 181 185 183 177 177 188 193 198 206 204 202 204 205 206 211 213 211 214 217 221 229 239 259 234 171 172 195 191 174 168 160 157 169 184 203 214 208 205 214 211 168 158 177 196 220 226 208 205 232 241 224 195 184 223 247 263 276 283 286 288
348 349 347 338 320 302 286 274 270 265 256 248 239 230 221 210 200 192 182 178 179 178 176 176 176 175 175 172 165 167 183 191 189 190 194 194 194 191 191 197 203 210 217 218 223 234 236 240 229 187 188 203 188 164 163 165 166 167 163 179 236 227 210 198 176 138 147 182 202 227 233 204 187 226 247 222 183 193 245 267 284 294 300 304 302
355 356 357 358 351 334 310 291 281 268 254 248 243 234 224 214 204 193 183 178 176 172 172 171 167 169 173 168 165 171 177 180 184 185 182 180 177 170 163 163 179 197 207 202 205 224 229 223 211 186 184 188 183 178 181 180 169 161 164 182 227 225 198 170 153 143 142 163 180 225 239 196 169 225 257 235 232 234 246 273 290 297 304 308 309
5 8 10 11 9 2 353 327 281 267 262 251 239 230 222 214 203 191 182 174 168 165 165 164 163 164 165 164 170 177 176 176 184 184 175 169 168 164 158 157 177 196 205 200 191 187 193 199 200 193 191 192 196 199 199 196 188 174 179 194 208 210 194 176 170 164 149 146 163 209 267 226 183 239 258 256 277 270 255 274 299 308 310 309 312
13 20 24 24 23 24 26 34 50 35 328 257 232 223 214 205 193 189 188 179 169 163 159 161 168 170 164 162 169 178 184 187 189 183 173 163 159 157 150 139 139 150 161 171 178 182 186 191 194 194 192 190 186 181 177 183 183 181 193 199 198 203 201 196 191 173 151 149 177 178 271 260 233 261 269 272 279 269 257 268 303 323 331 333 329
18 26 34 38 40 39 35 41 54 60 60 75 148 181 185 182 172 179 195 182 166 161 157 156 166 170 166 163 167 180 192 191 183 180 174 160 151 150 144 131 123 120 123 131 136 142 151 154 150 148 148 146 146 149 148 154 162 167 181 186 183 215 229 228 215 174 146 128 153 151 239 263 253 278 284 283 271 250 239 260 299 327 338 342 343
14 21 34 41 45 44 39 45 56 58 59 66 81 114 140 157 163 178 196 170 150 151 154 150 150 156 160 163 169 180 186 178 170 170 168 158 153 153 147 135 127 126 128 129 126 126 127 128 126 126 129 130 133 139 141 150 162 170 173 161 152 250 255 225 213 185 157 138 131 128 217 270 224 69 324 301 282 244 215 270 307 325 330 334 342